Back to catalog

THORAD DELTA 1 DEB

AliveLEO
NORAD 8299·DEBRIS·🇺🇸 United States

Launched Nov 15, 1974 from Vandenberg Space Force Base

Loading…

Next Passes (next 24 hours)

TLE

FreshSource: Space-Track

Epoch: Sep 13, 2026, 23:50 UTC

1 08299U 74089BG  26256.99353501  .00009296  00000-0  54602-2 0  9997
2 08299 102.0519  96.2165 0303754 233.4700 123.8125 13.87810908485787

Track THORAD DELTA 1 DEB in real time with AllMySat

Download on the App Store